494  
ASUS42 KKEY 270210  
RWRKEY  
 
FLORIDA REGIONAL WEATHER ROUNDUP FOR THE FLORIDA KEYS  
NATIONAL WEATHER SERVICE KEY WEST FLORIDA  
1000 PM EDT SUN MAR 26 2017  
   
..SOUTH FLORIDA AND THE KEYS
 
 
 
CITY SKY/WX TMP DP RH WIND PRES REMARKS
 
FORT MYERS LGT RAIN 76 61 59 SE7 30.10R  
SW REGIONAL AP MOCLDY 73 58 59 E13 30.10R  
NAPLES PTCLDY 72 64 76 E10 30.10R  
MIAMI PTCLDY 73 61 65 NE7 30.10S  
WEST KENDALL CLEAR 69 61 75 E7 30.10R  
HOMESTEAD CLEAR 73 64 74 E8 30.10R  
MARATHON CLEAR 76 66 71 E10 30.08R  
BOCA CHICA NAS PTCLDY 74 65 73 E14 30.07R  
KEY WEST INTL CLEAR 75 65 70 E9 30.08R  
   
..INTERNATIONAL WEATHER
 
 
 
CITY SKY/WX TMP DP RH WIND PRES REMARKS
 
NASSAU BAHAMAS PTCLDY 75 57 53 NE9 30.10R  
CANCUN MEXICO PTCLDY 77 70 78 E7 30.01R  
COZUMEL MEXICO CLEAR 75 68 78 E5 29.98R  
 
ADJACENT COASTAL WATERS...  
 
STATION/POSITION TIME SKY/WX TEMP WIND PRES WAVE
 
AIR SEA DIR/SP/G HT/PER  
(UTC) (F) (DEG/KT/KT) (MB) (FT/S)  
PULASKI SHOAL LI 0200 74 80/ 13/ 14 1018.5R  
SAND KEY 0150 76 100/ 17/ 20 1018.6R  
LONG KEY 0100 75 76 80/ 13/ 15 1018.8R  
MOLASSES REEF 0100 75 77 80/ 15/ 16 1018.8R  
FOWEY ROCKS 0200 74 76 60/ 15/ 17 1019.9R  
BUOY 42097 0200 N/A 2/ 5  
 

 
 
 
CLICK HERE TO GO TO PREVIOUS BULLETINS.

The Nexlab FL Page Main Text Page